Date,TemperatureHighF,TemperatureAvgF,TemperatureLowF,DewpointHighF,DewpointAvgF,DewpointLowF,HumidityHigh,HumidityAvg,HumidityLow,PressureMaxIn,PressureMinIn,WindSpeedMaxMPH,WindSpeedAvgMPH,GustSpeedMaxMPH,PrecipitationSumIn
2013-4-1,42.4,35.8,25.5,39.1,25.0,11.4,89,67,34,29.23,28.87,16,4,25,0.04
2013-4-2,36.5,28.1,22.6,26.2,17.7,11.6,77,65,50,29.37,29.22,13,5,23,0.00
2013-4-3,39.9,30.7,24.8,21.2,13.1,4.5,60,48,27,29.64,29.36,11,5,23,0.00
2013-4-4,60.8,37.8,20.1,25.0,16.0,-99.9,69,45,22,29.63,29.22,25,-9,98,0.00
2013-4-5,45.0,37.5,29.5,30.0,21.5,14.2,65,52,41,29.42,29.17,15,5,25,0.00
2013-4-6,51.3,32.8,21.3,23.3,7.7,-99.9,70,45,27,29.61,29.35,9,-81,13,0.00
2013-4-7,74.8,53.5,42.3,47.9,32.3,20.4,72,46,30,29.36,29.02,14,5,103,0.00
2013-4-8,63.3,47.4,38.5,44.7,36.1,-99.9,90,68,43,29.44,29.08,9,-12,99,0.00
2013-4-9,66.6,50.7,43.2,50.7,41.5,-99.9,98,76,49,29.43,29.06,15,-18,25,0.12
2013-4-10,45.9,42.5,38.7,45.0,42.0,38.1,99,98,97,29.36,29.17,10,2,15,0.50
2013-4-11,39.0,34.7,32.2,38.2,31.1,23.9,98,87,62,29.44,29.26,10,3,15,0.20
2013-4-12,52.3,40.3,33.3,48.2,38.0,32.4,99,92,71,29.27,28.87,14,4,23,0.57
2013-4-13,48.7,41.4,38.3,39.8,33.8,-99.9,90,76,56,29.24,29.08,11,-4,17,0.01
2013-4-14,48.4,38.6,16.0,32.9,26.5,-99.9,86,65,51,29.51,29.24,66,-12,98,0.00
2013-4-15,75.6,52.6,30.7,53.0,38.5,-99.9,79,61,41,29.50,29.34,9,0,18,0.06
2013-4-16,65.5,55.9,43.3,58.4,49.3,33.1,99,79,65,29.52,29.28,13,4,22,0.13
2013-4-17,57.9,45.1,33.1,40.5,33.1,-99.9,87,65,39,29.65,29.52,8,-1,14,0.01
2013-4-18,76.3,58.8,39.0,57.2,48.2,32.3,85,69,47,29.56,29.08,17,6,27,0.01
2013-4-19,74.5,58.4,41.2,62.1,50.3,31.9,95,75,59,29.08,28.71,15,6,27,0.06
2013-4-20,46.9,39.2,31.6,33.9,27.2,18.8,77,62,47,29.65,29.01,16,6,31,0.00
2013-4-21,49.3,35.6,26.6,33.8,20.5,5.3,74,55,27,29.94,29.65,11,2,15,0.00
2013-4-22,62.4,44.5,26.4,36.9,26.9,15.6,78,53,27,29.91,29.67,12,3,23,0.01
2013-4-23,64.6,50.0,34.3,42.2,34.4,25.2,70,56,38,29.67,29.29,9,4,19,0.00
2013-4-24,70.3,53.4,39.0,54.9,44.3,35.8,97,72,53,29.29,28.93,15,4,30,0.05
2013-4-25,62.1,45.3,31.5,40.2,34.0,26.5,95,68,29,29.61,29.26,9,3,17,0.04
2013-4-26,55.6,44.0,33.1,42.4,34.1,27.5,99,71,43,29.77,29.60,10,2,15,0.05
2013-4-27,72.9,52.0,33.6,47.0,35.6,27.1,85,57,28,29.75,29.55,8,2,10,0.00
2013-4-28,76.6,58.1,40.6,50.9,42.0,34.7,93,59,28,29.56,29.36,11,4,19,0.01
2013-4-29,67.8,55.8,49.1,55.2,50.3,47.2,96,82,62,29.40,29.32,12,4,22,0.01
2013-4-30,75.3,61.7,53.4,58.2,53.2,49.8,97,76,51,29.57,29.39,11,3,16,0.00